Zurück zum Katalog

STARLINK-11164

AktivKommunikationVLEO
NORAD 60120·PAYLOAD·🇺🇸 United States

Gestartet Jun 24, 2024 von Vandenberg Space Force Base

Loading…

Nächste Überflüge (nächste 24 Stunden)

TLE

AktuellSource: CelesTrak SupGP

Epoche: Sep 15, 2026, 02:28 UTC

1 60120C 24118H   26258.10326389 -.00056761  00000+0 -46751-3 0  2580
2 60120  53.1573   7.4369 0000955  82.6997 290.2713 15.69740884    11

Verfolge STARLINK-11164 in Echtzeit mit AllMySat

Download on the App Store